weather.gov     
National Weather Service

Terminal Aerodrome Forecast
NWS Homepage
This page is being discontinued on March 12, 2014.
The same data is available at this site. Please update your bookmarks.
Thank you, and we apologize for the inconvenience.
Please send an email to SR-SRH.Webmaster@noaa.gov with any concerns.


Current Version
Previous Version:    01  02  03  04  05  06  07  08  09  10  11  12  13  14  15  16  17  18  19  20  21  22  23  24  25  26  27  28  29  30  
   31  32  33  34  35  36  37  38  39  
[Printable]
551
FTUS41 KBTV 241738
TAFMPV
TAF
KMPV 241738Z 2418/2518 33008KT P6SM OVC010
      TEMPO 2418/2422 OVC008
     FM242200 33005KT P6SM OVC015
     FM250000 VRB03KT P6SM OVC025
     FM250300 VRB03KT P6SM BKN050 BKN100
     FM250700 00000KT 1/4SM FG VV001
     FM251400 30004KT P6SM SCT200=




551
FTUS41 KBTV 241738
TAFMPV
TAF
KMPV 241738Z 2418/2518 33008KT P6SM OVC010
      TEMPO 2418/2422 OVC008
     FM242200 33005KT P6SM OVC015
     FM250000 VRB03KT P6SM OVC025
     FM250300 VRB03KT P6SM BKN050 BKN100
     FM250700 00000KT 1/4SM FG VV001
     FM251400 30004KT P6SM SCT200=


U.S. Dept. of Commerce
NOAA National Weather Service
1325 East West Highway
Silver Spring, MD 20910
E-mail: w-nws.webmaster@noaa.gov
Page last modified: May 16, 2007
NATIONAL WEATHER SERVICE: for Safety, for Work, for Fun - FOR LIFE